Regional Weather Roundup
Issued by NWS Sioux Falls, SD

Home | Current Version | Previous Version | Text Only | Print | Product List | Glossary On
Versions: 1 2 3 4 5 6 7 8 9 10 11 12 13 14 15 16 17 18 19 20 21 22 23 24 25 26 27 28 29 30 31 32 33 34 35 36 37 38 39 40 41 42 43 44 45 46 47 48 49 50
435
ASUS43 KFSD 290802
RWRFSD

WEATHER ROUNDUP FOR SE SOUTH DAKOTA/SW MINNESOTA/NW IOWA
NATIONAL WEATHER SERVICE SIOUX FALLS SD
300 AM CDT WED MAR 29 2017

NOTE: "FAIR" INDICATES FEW OR NO CLOUDS BELOW 12,000 FEET WITH NO
SIGNIFICANT WEATHER AND OR OBSTRUCTIONS TO VISIBILITY.


SDZ038>040-050-052>070-290900-
SOUTHEAST SOUTH DAKOTA

CITY           SKY/WX    TMP DP  RH WIND       PRES   REMARKS
BROOKINGS      PTCLDY    43  35  73 CALM      30.14F
CHAMBERLAIN    CLOUDY    46  44  91 NW6       30.14F
HURON          CLOUDY    44  39  82 CALM      30.14F
MADISON        FAIR      37  37 100 E8        30.14F
MITCHELL       CLOUDY    44  37  76 CALM      30.15R
SIOUX FALLS    MOCLDY    42  37  82 NE6       30.14F
WINNER         LGT RAIN  44  42  93 CALM      30.15R
YANKTON        MOCLDY    45  39  81 NE3       30.12S
$$

MNZ071-072-080-081-089-090-097-098-290900-
SOUTHWEST MINNESOTA

CITY           SKY/WX    TMP DP  RH WIND       PRES   REMARKS
FAIRMONT       CLOUDY    42  37  82 CALM      30.18R
JACKSON        CLOUDY    37  34  87 E6        30.17R
LUVERNE        MOCLDY    37  34  87 NE5       30.15S
MARSHALL       CLOUDY    38  34  85 CALM      30.17S
MONTEVIDEO     CLOUDY    39  30  70 CALM      30.18R
PIPESTONE      MOCLDY    39  30  70 CALM      30.15S
REDWOOD FALLS  CLOUDY    45  32  60 E3        30.17S
TRACY          CLOUDY    45  37  72 CALM      30.16S
WINDOM         MOCLDY    43  36  75 SE5       30.17R
WORTHINGTON    CLOUDY    40  36  86 E6        30.16S
$$

IAZ001>003-012>014-020>022-031-032-NEZ013-014-SDZ071-290900-
NORTHWEST IOWA

CITY           SKY/WX    TMP DP  RH WIND       PRES   REMARKS
CHEROKEE       CLOUDY    44  42  94 NE5       30.14F
DENISON        CLOUDY    45  43  93 NE7       30.12F
ESTHERVILLE    CLOUDY    39  38  96 CALM      30.16R
LE MARS        CLOUDY    46  43  87 NE5       30.14F
ORANGE CITY    CLOUDY    45  43  93 E3        30.14F
SHELDON        MOCLDY    39  37  93 E5        30.14R
SIOUX CITY     LGT RAIN  46  43  89 E8        30.12F
SPENCER        CLOUDY    41  39  93 NE5       30.16R
STORM LAKE     CLOUDY    43  41  93 NE7       30.13F
$$

ABBREVIATIONS USED IN REMARKS
   TC - TEMPERATURE IN CELSIUS
  WCI - WIND CHILL INDEX
   HX - HEAT INDEX
  VSB - VISIBILITY





USA.gov is the U.S. government's official web portal to all federal, state and local government web resources and services.